RH
24 24 24 24 24 21 17 14 13 12 12 13 12 12 12 12 11 9 9 7 8 7 6 6 5 6 5 5 4 4 5 5 6 5 5 4 1 5 11 8 3 8 8 7 12 11 11 12 24 55 63 53 53 56 65 74 74 80 91 98 96 98 97 90 90 91 91 87 85 84 81 88 85 74 63 50 48 50 51 54 55 59 62 67 70 72 74 75
24 24 25 25 24 22 18 13 11 12 12 12 12 12 11 10 10 9 9 9 8 7 6 6 5 6 5 6 5 4 5 4 5 5 7 6 2 2 5 8 6 5 4 6 12 9 12 28 45 60 56 47 48 54 68 74 73 85 95 98 96 96 93 86 89 89 86 85 84 82 80 82 79 78 75 55 49 50 49 54 56 60 62 65 69 69 70 72
24 24 24 25 25 23 20 14 11 12 14 15 14 14 13 11 11 10 10 9 8 7 6 6 6 6 6 6 5 5 4 7 12 15 16 11 5 3 3 6 6 5 3 5 11 8 14 38 52 51 47 45 46 58 75 75 76 85 89 97 97 91 91 87 89 85 78 83 85 83 81 82 72 68 79 63 47 48 47 54 58 61 62 62 68 69 69 71
24 24 24 25 24 24 21 15 12 14 18 20 19 19 18 16 14 12 11 10 9 8 7 7 7 7 8 5 6 6 4 17 28 26 23 16 10 6 4 4 4 5 3 4 10 11 17 33 39 35 39 42 42 59 76 75 75 83 88 99 96 87 92 90 88 84 77 80 81 81 81 80 68 61 74 61 45 48 46 53 59 60 61 59 66 70 69 70
25 23 23 24 24 24 21 15 13 17 21 23 24 23 23 20 16 14 12 12 10 10 9 9 9 8 9 6 7 4 5 26 36 31 23 15 14 9 5 4 2 3 2 5 8 14 25 31 31 27 31 37 46 62 73 73 71 83 91 91 90 88 94 92 89 87 82 80 79 84 82 71 64 61 67 56 45 49 47 53 59 59 60 58 61 68 69 69
24 24 24 24 24 24 22 16 13 18 22 24 28 27 26 23 19 17 14 12 11 11 10 10 11 10 9 7 6 4 10 22 23 26 24 16 18 14 6 2 1 2 1 6 8 17 31 31 27 24 27 32 49 67 73 73 68 83 93 85 87 89 93 94 91 89 82 80 82 83 75 63 64 62 59 52 44 46 48 53 57 58 59 57 58 63 67 67
23 24 24 23 24 24 23 18 13 18 23 25 29 29 28 25 23 22 19 18 16 14 14 12 12 10 10 8 6 6 11 15 15 23 25 23 26 18 10 3 1 2 1 5 9 21 31 27 24 24 30 30 42 68 77 73 65 80 94 87 87 87 93 95 88 89 82 74 75 75 69 66 70 66 57 50 42 46 50 52 55 57 58 57 58 60 63 63
21 23 23 23 23 24 23 19 14 17 23 26 28 27 27 26 25 25 24 24 22 21 20 18 18 13 11 8 8 10 9 17 25 26 26 28 28 21 18 9 1 1 2 6 13 27 29 25 27 26 33 27 33 65 77 74 72 80 91 89 88 90 94 92 85 87 83 74 74 75 71 68 69 67 60 49 44 49 51 52 55 56 57 58 59 60 61 61
20 21 22 23 23 23 24 21 15 15 21 25 26 25 25 25 25 25 25 25 25 26 24 24 23 18 15 10 12 18 18 26 30 23 24 28 26 22 20 12 5 2 2 7 17 28 27 27 31 28 32 26 34 65 72 74 79 77 83 88 90 93 94 91 88 86 84 80 78 82 77 68 65 62 57 48 46 50 50 53 55 55 57 57 59 59 59 60
17 20 21 22 22 23 23 23 17 14 19 25 25 24 24 24 24 25 25 25 25 26 26 27 26 24 21 13 15 25 27 29 27 22 23 25 26 22 15 12 7 2 1 8 21 29 28 30 30 28 29 23 38 65 65 65 70 72 81 90 93 97 95 91 89 84 84 81 77 88 83 65 60 59 55 47 46 51 51 54 55 55 57 57 58 58 58 59
13 17 20 21 22 22 22 23 18 12 16 23 25 24 24 23 24 25 26 26 26 26 25 26 27 27 25 19 20 23 22 23 23 23 23 24 28 23 13 11 7 2 1 9 25 31 28 30 28 28 26 22 43 63 62 61 68 77 85 92 94 97 94 88 88 82 84 81 74 89 84 60 57 58 52 46 47 50 51 53 54 55 55 56 57 56 57 57
10 13 18 20 21 21 22 23 19 12 13 20 24 24 25 23 23 25 27 28 27 27 24 25 28 28 26 23 18 14 13 16 18 20 25 26 24 19 13 10 6 2 1 9 27 31 27 29 25 27 24 24 47 62 65 71 75 80 83 90 94 94 92 90 91 86 88 86 73 82 78 62 63 57 47 45 48 49 49 52 52 54 54 54 54 54 55 53
10 10 14 18 20 20 22 22 19 13 11 17 22 24 24 22 23 25 27 27 27 27 25 26 27 28 32 25 13 13 16 17 17 19 25 24 17 17 15 9 4 2 1 7 23 28 27 27 23 27 22 26 53 65 69 73 72 77 84 91 96 96 94 91 91 86 87 88 78 77 73 70 72 58 45 44 46 48 48 50 50 52 53 52 52 52 52 51
10 9 10 15 19 20 21 21 18 13 12 15 19 21 21 22 24 24 25 25 25 27 26 27 27 31 38 25 12 18 19 15 16 16 18 17 13 18 18 9 7 6 2 4 19 26 25 24 21 22 19 29 59 68 72 77 77 84 89 92 96 98 97 91 90 89 89 86 78 75 71 73 72 56 47 45 44 46 46 47 49 50 50 50 51 51 49 48
10 9 9 12 17 19 20 20 18 14 13 15 17 20 20 21 22 21 23 24 26 28 27 28 30 35 41 26 13 18 19 18 18 14 14 14 13 19 18 11 9 8 5 8 19 24 21 20 19 18 20 34 58 68 77 87 90 93 93 93 94 97 98 92 90 92 94 86 76 77 77 75 70 58 51 47 44 43 44 45 46 47 47 47 48 48 46 45
9 9 8 9 15 18 20 19 17 14 14 16 17 19 19 19 21 23 27 27 28 29 29 32 30 35 44 33 18 16 18 19 17 13 13 14 15 18 18 13 11 10 10 13 19 19 18 18 17 17 20 30 47 67 83 92 96 95 94 95 94 96 99 95 92 91 93 90 81 85 87 79 70 59 49 46 44 41 41 43 43 44 45 44 45 44 42 43
11 9 8 8 12 17 19 18 16 14 14 16 17 17 18 20 25 31 33 31 29 29 31 36 34 36 39 28 19 18 18 16 14 14 15 16 17 19 17 13 13 13 12 15 16 14 15 17 17 18 17 18 34 64 87 94 97 97 97 98 93 92 96 97 96 90 90 92 87 89 91 81 70 57 48 45 42 38 39 41 41 42 42 41 42 41 40 42
13 8 8 7 10 16 18 17 15 13 14 16 16 16 19 23 27 32 32 30 31 34 41 48 44 39 31 18 17 20 16 16 16 17 18 18 19 19 18 14 13 15 13 14 15 14 16 17 17 19 20 17 26 53 81 88 85 89 95 97 93 91 93 96 97 91 90 92 90 89 89 86 74 58 49 46 40 38 39 39 39 39 40 40 40 41 41 41
15 9 8 7 9 14 18 16 13 13 14 15 17 18 20 23 26 29 29 30 35 37 40 44 38 33 25 16 18 19 16 18 18 17 17 16 19 20 18 15 14 14 15 17 18 17 18 19 19 21 24 21 20 34 55 65 67 77 85 87 90 94 94 93 94 92 89 91 92 89 89 90 78 59 52 50 42 37 37 38 39 38 39 40 40 40 41 41
14 9 7 6 8 13 17 15 13 14 14 16 20 21 21 22 26 29 28 28 31 29 26 27 27 27 24 19 18 19 18 17 16 16 15 14 17 18 16 16 15 14 17 20 22 19 18 23 25 24 24 22 20 20 31 48 60 70 80 84 87 94 96 94 95 95 88 88 92 91 89 90 82 71 67 59 46 38 38 39 39 39 39 40 40 39 41 41
12 8 6 6 7 12 15 14 14 14 15 18 22 22 21 23 27 28 27 27 25 24 22 21 22 24 22 18 15 16 16 14 14 15 14 13 15 15 15 15 14 16 18 19 21 19 19 27 28 23 20 19 18 15 25 50 62 66 78 87 90 94 97 95 93 94 91 91 94 91 88 89 87 85 82 70 51 38 38 40 39 39 39 40 40 39 40 41
10 8 6 5 6 11 14 13 14 15 17 22 24 25 24 24 26 26 27 29 24 22 24 22 23 23 21 18 14 14 14 13 13 14 15 14 14 15 14 14 16 17 18 17 20 21 24 27 24 20 18 18 17 14 30 55 60 65 78 87 94 96 96 96 93 93 94 96 96 91 90 92 89 86 85 79 63 43 37 39 38 39 40 41 40 38 40 40
8 7 6 5 7 11 13 14 16 19 23 26 26 25 23 23 26 27 28 30 26 23 23 22 22 21 19 18 15 13 13 13 14 15 15 14 14 15 13 15 17 17 18 18 20 25 27 25 19 18 17 17 17 13 31 56 59 68 81 87 97 97 90 95 98 96 95 95 94 91 93 95 89 88 87 81 69 52 41 39 37 37 39 40 39 37 38 40
8 6 5 4 7 10 13 17 22 26 27 26 24 22 23 24 25 27 29 30 29 24 21 21 20 19 17 15 13 13 13 14 14 15 16 14 14 14 13 15 15 17 18 17 19 22 23 19 14 16 15 16 17 13 30 56 62 68 74 81 96 96 85 88 95 97 94 93 91 89 96 97 91 92 91 84 73 59 48 42 39 38 38 38 37 35 37 39
7 6 4 5 7 10 14 20 25 27 24 22 22 22 24 25 24 26 29 33 37 30 20 19 19 17 14 12 12 12 12 12 12 14 16 15 14 13 13 13 12 15 16 15 18 18 17 15 11 14 14 14 15 14 30 51 61 69 67 69 84 87 86 91 93 95 96 97 91 88 95 96 91 91 92 91 83 67 57 48 40 40 40 39 37 35 37 40
6 6 4 4 7 10 15 20 22 22 22 22 21 23 24 25 26 25 31 44 49 34 18 14 15 14 12 12 11 10 15 16 13 15 16 15 14 14 15 15 12 12 12 11 14 14 14 11 10 13 12 12 11 13 30 43 53 67 61 61 75 80 89 96 92 92 97 99 92 87 94 95 91 90 88 92 89 77 67 55 44 42 42 40 37 36 39 41
6 5 4 5 6 10 14 17 19 22 25 23 21 23 22 23 25 23 36 55 45 24 16 14 13 13 12 12 9 14 24 23 16 16 17 16 15 13 18 20 17 13 11 10 11 11 10 9 11 12 10 13 11 10 25 35 47 62 58 61 76 82 90 92 89 95 98 98 95 90 93 95 93 90 86 89 90 85 77 63 53 49 46 40 37 38 39 41
7 5 4 6 5 10 14 18 22 24 26 25 22 23 21 24 24 23 45 58 30 9 13 14 12 12 11 11 11 15 21 20 20 20 16 16 16 14 17 19 18 17 14 13 16 13 9 9 9 10 11 12 10 13 25 36 54 65 61 65 76 81 87 87 89 98 96 95 99 95 91 92 92 92 91 91 92 90 83 70 60 56 50 42 39 41 40 40
5 5 5 5 6 11 15 21 25 22 24 24 21 21 24 25 24 32 59 59 25 10 13 12 13 13 11 12 12 13 15 18 22 20 15 16 15 13 16 17 15 17 15 15 19 15 10 9 7 9 11 8 13 25 32 44 63 67 61 66 73 76 82 85 92 97 92 91 98 97 90 88 91 97 98 95 95 92 83 72 62 56 51 45 42 43 41 40
5 6 6 5 7 11 16 22 24 22 22 20 18 21 24 25 33 55 71 52 22 13 13 11 13 13 11 12 11 13 17 18 18 16 14 14 13 12 13 13 12 15 16 15 16 16 12 9 8 8 8 9 24 39 42 51 61 60 63 70 73 77 82 89 96 96 94 94 95 94 89 87 91 96 96 95 92 86 79 73 66 59 52 47 45 43 41 41
6 7 6 6 7 10 17 22 23 22 18 15 19 21 24 35 53 69 60 32 17 14 11 13 14 13 13 13 13 15 18 19 18 17 16 12 12 13 12 14 16 17 21 20 16 15 11 8 10 9 9 19 37 51 54 56 56 58 66 70 76 85 87 91 94 93 95 97 94 91 88 90 95 95 93 93 88 82 80 75 67 62 55 48 46 44 42 42
8 8 7 7 7 12 18 20 19 19 14 16 21 22 35 54 64 64 46 25 22 17 10 13 14 14 14 15 18 18 19 22 18 17 18 14 15 15 14 18 20 20 28 27 18 16 12 9 11 11 16 33 49 61 63 57 56 62 67 70 84 95 94 94 95 94 96 97 93 91 91 93 94 92 91 89 86 82 79 72 62 60 55 47 46 45 42 41
10 9 7 6 8 13 17 17 17 15 14 19 22 28 53 68 59 53 44 25 17 12 9 11 12 13 16 19 22 19 20 23 19 19 19 15 16 15 13 16 16 18 26 26 19 16 14 12 12 12 19 35 49 62 67 62 61 64 65 72 87 95 98 100 98 93 94 95 92 89 92 95 92 91 89 86 83 78 73 67 59 56 54 49 47 46 44 43
11 8 8 6 8 14 16 16 16 17 19 22 27 40 60 64 51 46 38 17 9 9 7 9 10 13 17 21 22 20 24 25 20 20 20 16 17 17 15 13 13 14 17 20 21 17 14 18 18 15 18 28 42 50 53 57 60 57 54 59 70 81 87 93 97 96 96 97 95 92 91 94 95 94 89 83 79 76 73 69 60 57 58 55 52 48 45 44
11 8 8 6 10 16 15 17 19 22 23 24 39 54 58 55 47 39 27 12 9 9 7 9 10 14 18 19 19 17 21 24 19 23 30 25 19 19 18 14 12 16 18 25 32 22 15 21 19 14 14 20 31 34 34 49 57 50 45 49 57 64 67 77 87 88 92 99 97 94 93 91 92 93 89 85 83 81 80 76 68 64 59 55 54 52 47 45
11 9 8 6 11 16 15 20 25 26 25 31 53 64 56 46 37 28 20 12 9 7 9 13 11 14 19 22 23 16 15 19 18 29 42 35 24 21 20 15 13 20 24 28 33 26 20 23 17 11 14 16 22 22 23 38 47 43 47 50 47 45 52 72 82 75 83 97 92 89 96 93 88 89 92 92 89 87 87 83 76 70 62 56 54 53 50 48
11 10 9 8 13 16 16 22 26 28 28 35 54 62 50 35 24 21 19 12 8 7 12 17 14 15 18 20 22 13 13 18 17 34 51 38 27 25 18 14 14 18 21 20 21 22 21 22 16 11 14 15 16 16 15 19 25 34 47 45 35 35 43 65 85 82 83 93 91 88 95 94 87 89 96 97 95 94 92 87 80 75 69 62 56 53 51 50
11 9 9 12 17 17 17 21 25 29 30 35 52 58 44 29 21 21 17 9 7 9 13 17 14 15 16 19 19 12 15 21 20 42 61 41 27 26 18 15 15 13 16 16 19 22 18 19 20 14 14 18 18 20 20 15 13 23 34 32 35 48 52 57 75 83 80 89 94 90 91 93 89 91 97 98 97 96 92 89 84 81 77 65 55 53 51 50
11 12 12 15 21 21 21 24 25 28 31 37 50 49 34 25 21 17 13 7 7 10 14 14 13 16 17 17 18 13 17 23 21 38 58 45 31 29 20 15 16 13 14 17 19 20 17 19 23 16 13 18 21 23 26 19 11 13 19 23 34 51 57 53 57 65 73 85 88 82 85 89 84 83 88 90 93 94 91 88 85 81 76 63 53 55 53 50
11 16 19 19 22 23 23 25 26 29 34 39 44 36 24 22 17 10 8 6 7 10 12 12 14 17 17 16 17 15 15 21 22 26 40 41 33 28 21 16 16 13 14 18 18 18 20 20 21 19 15 16 18 17 19 19 13 11 15 22 28 34 41 42 43 47 61 81 85 81 84 84 77 77 80 82 86 89 88 86 81 75 70 62 56 55 54 52
10 18 23 21 21 22 22 27 28 29 33 35 32 25 19 18 13 7 7 7 8 10 9 12 15 14 16 19 18 15 15 19 21 20 30 40 33 24 19 15 13 12 15 21 19 18 23 22 23 24 19 16 17 15 13 14 13 11 14 19 21 27 37 45 47 42 48 66 74 76 83 84 77 72 71 75 80 81 81 81 78 73 69 67 64 59 57 55
15 21 23 20 22 22 21 27 27 24 26 26 22 19 17 17 11 6 7 7 8 10 9 12 14 13 15 18 15 15 17 19 19 18 25 35 30 21 16 11 9 12 17 21 18 17 24 27 28 29 25 18 15 14 12 12 11 9 11 13 14 25 37 48 52 45 43 53 60 71 85 84 76 71 68 70 74 74 74 76 77 76 73 72 70 67 63 58
14 17 20 20 23 22 21 28 31 26 23 20 16 16 14 13 10 7 7 8 8 10 11 11 13 14 14 15 13 14 18 19 19 18 19 22 18 14 13 10 9 13 16 18 19 20 25 30 32 37 42 35 22 20 18 14 11 8 8 10 11 18 26 36 47 50 51 54 60 72 81 75 72 74 69 65 68 71 71 72 73 75 75 71 70 71 67 59
14 16 19 19 22 21 20 28 34 31 28 21 16 16 14 9 9 8 8 9 8 10 12 12 12 13 13 13 14 14 17 21 20 17 16 15 13 10 10 10 10 12 13 16 22 22 24 36 46 50 55 51 40 35 31 25 21 17 15 11 9 11 16 23 36 43 47 50 52 57 64 69 73 74 69 66 68 71 71 71 71 74 77 76 74 72 65 59
24 24 20 19 24 24 21 23 25 26 26 21 15 15 14 10 8 8 7 7 6 7 11 12 10 11 12 13 14 14 15 20 21 18 17 15 13 10 9 10 11 12 14 15 21 24 24 38 56 58 49 47 49 43 38 35 29 24 23 20 16 11 9 19 34 39 41 45 47 48 57 72 76 70 69 71 70 71 72 70 73 76 78 78 76 74 66 63
32 31 27 29 30 26 24 21 18 18 18 19 21 18 14 12 9 6 6 7 6 6 8 11 10 11 13 14 16 18 17 19 22 22 21 20 17 13 11 11 11 15 19 16 16 27 33 38 53 59 46 43 53 49 39 35 28 26 33 37 36 27 17 24 36 41 46 49 51 56 63 75 82 74 72 75 73 76 76 72 75 80 81 80 78 76 69 69
45 41 43 51 49 38 35 31 24 26 24 22 25 20 13 12 10 7 8 6 6 8 11 12 10 11 15 18 20 24 25 24 25 26 25 24 22 16 12 12 12 13 16 14 15 31 40 32 33 43 38 32 39 39 30 27 28 35 45 49 50 46 39 42 41 38 47 48 51 66 76 80 84 77 74 77 75 78 82 80 79 80 80 80 80 81 77 74
57 53 49 56 61 56 53 47 39 38 31 22 22 17 13 13 12 10 10 8 6 8 13 17 15 13 17 21 24 31 37 36 33 34 33 28 27 22 15 14 15 12 12 14 17 30 40 32 22 26 32 28 27 29 29 32 38 45 50 51 54 53 55 62 60 53 57 59 63 80 88 87 85 78 76 79 80 86 92 88 84 83 84 82 80 81 80 77
63 66 55 51 61 62 57 53 46 38 31 27 25 20 13 14 13 10 9 10 10 9 11 17 18 13 16 26 32 36 40 37 32 35 37 29 27 27 22 20 19 14 12 15 19 24 34 40 30 25 36 39 32 31 36 39 44 48 50 52 55 57 59 64 66 65 69 75 78 84 90 91 88 83 84 87 89 92 90 85 87 90 92 92 87 83 79 76
66 73 68 64 70 64 55 54 48 37 33 28 24 21 15 13 14 12 10 12 14 12 11 13 15 13 14 26 32 28 33 37 32 31 33 26 25 28 26 23 20 17 16 17 19 21 24 34 35 32 41 43 31 30 38 43 48 53 56 57 57 62 67 68 68 69 73 80 79 79 89 93 84 80 86 88 89 91 89 88 92 89 87 90 93 93 90 89
51 65 77 85 85 69 56 56 46 37 38 31 20 20 17 12 13 13 12 12 11 11 11 9 13 19 18 21 24 18 21 30 25 19 20 17 17 21 22 20 18 18 21 19 20 23 22 28 38 45 48 39 26 28 36 39 44 52 58 63 64 67 73 74 73 73 75 81 84 85 94 96 85 82 88 90 90 92 93 95 98 94 90 89 90 95 98 98
35 48 65 79 86 73 61 61 49 37 40 36 22 19 16 11 12 14 16 15 9 9 11 7 12 25 25 20 20 14 10 14 12 10 12 10 9 11 12 13 14 16 21 21 22 26 28 29 39 50 48 37 29 31 32 38 52 62 67 72 70 68 71 74 75 74 74 80 90 96 98 98 91 88 93 97 96 96 96 96 98 99 99 96 92 95 100 99
Wind_Speed
12 13 13 14 14 14 13 13 13 13 13 13 12 10 9 8 7 6 6 6 6 6 6 6 6 6 6 6 7 7 8 8 10 13 12 4 6 10 10 12 12 13 11 9 11 13 15 15 16 17 13 11 11 13 14 13 12 7 3 1 1 1 1 2 1 3 3 3 4 5 7 3 3 6 7 13 24 26 24 23 23 20 22 26 30 35 34 33
12 13 13 14 14 14 14 13 13 13 13 13 12 11 10 9 8 7 6 6 6 6 6 6 6 7 7 8 8 8 9 9 11 11 8 3 6 10 12 14 13 14 13 12 13 15 16 16 18 17 13 11 9 11 14 13 10 3 3 0 1 2 3 4 4 5 4 3 7 10 10 5 3 5 7 8 17 23 21 19 25 26 26 28 32 35 33 34
12 13 13 14 14 14 14 13 13 13 12 12 12 12 11 10 10 8 7 6 6 6 6 5 5 6 8 9 9 9 10 10 8 3 3 1 3 6 11 14 14 15 13 12 12 14 17 17 17 15 13 10 8 12 13 10 8 3 4 1 3 2 3 6 8 9 9 5 7 6 6 3 6 5 10 6 18 19 16 20 27 29 30 33 33 36 35 34
12 12 13 14 14 15 14 13 13 12 12 12 12 12 12 12 11 10 8 7 7 7 7 6 6 7 8 9 9 9 10 8 1 5 6 6 2 3 8 12 15 15 13 12 12 14 16 16 13 10 10 10 10 15 12 9 8 5 5 2 3 1 2 5 9 13 13 8 11 9 7 5 8 10 10 9 17 11 16 28 33 36 36 35 35 37 36 33
10 11 12 13 14 14 14 13 12 11 12 12 12 12 12 12 12 11 10 9 8 8 8 8 8 8 9 10 10 9 8 4 4 6 5 5 5 2 6 10 14 15 15 14 14 16 16 15 12 9 10 10 8 11 10 11 9 5 4 6 4 1 0 4 7 12 12 10 14 12 9 9 11 10 13 11 13 9 21 33 38 42 39 38 38 36 35 32
9 10 11 12 13 13 13 12 11 10 11 12 12 11 11 12 12 12 11 10 10 9 9 9 9 9 9 10 10 9 4 0 3 3 2 2 6 4 4 9 13 14 16 15 16 18 17 15 11 9 9 7 8 7 8 14 9 3 3 4 4 4 2 4 7 9 10 11 11 8 9 11 8 7 8 5 11 18 30 37 40 40 39 40 37 33 35 31
9 9 10 11 12 12 12 11 9 9 10 11 11 11 11 11 12 12 12 12 11 11 10 10 10 10 10 10 10 9 8 5 1 3 2 1 5 4 2 7 12 13 17 17 19 20 18 15 12 11 7 4 8 7 9 15 9 3 2 3 4 3 2 6 10 10 10 13 10 7 9 8 5 5 3 1 20 30 34 38 39 37 38 38 33 32 33 29
8 9 10 10 11 12 12 11 9 8 9 10 11 11 11 11 11 12 12 12 11 11 11 11 11 11 10 10 10 10 11 4 4 6 5 2 4 3 2 4 10 13 17 18 21 21 17 16 15 12 6 3 7 8 13 13 5 3 2 5 3 3 5 8 11 13 12 12 9 6 7 6 6 5 3 7 30 37 37 39 38 37 36 34 32 32 30 28
8 9 9 10 11 12 12 11 9 8 8 9 10 10 10 11 11 12 12 12 11 11 11 11 12 13 11 11 11 10 5 3 6 6 8 4 5 5 4 3 8 13 17 19 21 20 16 16 16 11 6 6 7 9 15 10 3 6 7 8 6 3 6 8 9 11 12 10 6 3 4 9 11 6 2 17 35 38 39 39 38 37 34 32 31 30 29 29
9 9 9 10 10 11 12 12 10 8 7 8 9 9 10 11 12 13 13 13 13 12 12 12 13 13 14 12 9 4 2 5 4 5 6 4 7 8 5 4 7 13 17 19 22 22 17 16 14 7 6 7 6 12 15 8 6 12 11 10 9 5 4 6 7 8 8 7 5 2 6 13 15 8 6 23 36 38 39 37 37 36 32 32 30 29 30 29
9 9 9 9 10 11 12 12 11 8 7 7 8 9 10 11 12 13 14 14 14 14 13 12 13 14 15 14 9 3 4 3 3 3 5 5 7 10 6 5 7 12 17 20 24 23 18 14 9 4 6 4 4 11 8 5 10 17 15 10 9 8 5 5 6 7 5 4 2 2 5 8 12 8 10 27 37 38 38 35 35 33 31 31 29 29 30 29
10 9 9 9 10 11 12 12 11 9 7 7 9 10 11 12 12 14 15 15 15 15 14 13 14 15 15 17 14 5 4 3 2 5 4 5 8 11 7 5 8 12 16 21 24 22 15 9 5 8 8 3 4 6 5 9 14 14 11 5 6 7 4 4 3 4 3 2 2 5 1 5 4 7 19 32 36 38 38 34 33 31 30 30 29 29 29 29
11 10 9 9 10 11 11 11 11 9 8 8 9 10 11 12 13 14 15 16 16 15 14 13 14 15 16 16 8 3 3 6 4 4 4 6 10 11 6 4 8 10 15 20 22 18 12 8 8 13 14 5 3 6 9 12 11 10 8 3 2 4 1 3 3 1 2 1 4 4 4 4 1 10 26 34 34 35 34 33 32 30 29 30 29 29 29 29
12 11 10 9 10 10 11 11 11 10 9 9 10 11 12 13 14 15 17 17 17 15 14 13 13 14 15 11 2 4 3 5 6 5 6 9 10 8 6 3 7 9 12 17 19 16 11 10 12 17 16 5 10 12 10 7 6 5 3 3 1 2 1 4 5 2 2 1 6 3 4 2 2 12 23 29 34 35 30 30 31 29 29 30 30 29 27 28
13 12 11 10 10 10 10 11 10 9 9 9 10 11 12 14 15 17 19 19 17 16 14 13 12 12 15 11 2 4 6 6 8 7 7 9 10 9 6 4 5 7 10 15 16 13 10 9 13 15 7 11 17 11 4 3 4 2 2 1 3 1 2 4 5 3 1 1 5 4 4 3 3 14 22 21 28 34 30 29 29 28 30 29 29 28 26 27
13 13 12 10 10 10 10 10 9 9 9 10 11 11 13 14 16 18 18 17 16 14 12 10 10 11 11 8 3 3 4 5 5 3 7 11 12 10 7 4 5 7 8 11 11 8 8 10 14 13 7 12 12 6 3 3 2 2 1 1 2 1 3 2 3 3 1 1 4 4 4 4 2 16 29 20 22 32 28 27 29 29 30 28 28 27 26 29
14 13 12 11 9 9 9 9 9 8 8 9 10 10 13 15 16 16 13 12 12 11 11 8 10 11 8 4 8 9 5 3 3 1 5 10 13 11 9 7 6 7 8 8 9 11 12 10 8 7 5 5 5 5 4 2 0 0 1 1 1 1 4 3 1 3 1 0 1 4 2 4 4 19 30 19 21 30 24 25 29 29 29 26 27 27 27 30
14 13 12 11 9 8 9 9 8 7 7 9 10 11 13 14 13 10 8 9 10 8 8 5 4 6 5 6 12 12 5 1 1 0 3 7 10 11 12 11 6 6 10 10 11 14 13 7 5 2 0 3 4 5 3 3 5 5 3 2 3 3 5 4 3 4 3 1 1 2 1 3 4 16 26 17 19 27 24 26 30 29 27 26 28 27 26 30
15 14 13 11 9 8 8 8 7 7 8 8 10 12 11 11 10 6 7 11 10 6 5 5 4 3 6 13 17 10 1 4 2 1 4 5 7 9 11 11 9 9 10 6 6 10 9 2 3 2 1 4 4 6 5 5 7 10 8 5 5 5 4 3 2 4 6 4 3 4 3 4 3 12 16 11 13 24 26 27 29 28 27 26 28 26 26 30
15 14 13 11 8 7 7 7 7 8 9 8 9 10 9 9 6 5 13 18 16 13 13 15 14 13 15 17 15 7 1 1 1 3 3 5 7 8 9 11 12 10 7 4 3 7 7 3 2 5 6 6 6 8 8 6 8 10 6 5 6 5 3 2 3 4 4 4 4 3 5 4 3 5 3 8 8 21 26 26 27 28 27 26 29 27 26 29
16 14 13 10 8 7 7 7 7 8 10 9 10 10 9 8 4 7 16 21 23 21 20 21 19 18 18 14 11 8 5 2 2 4 3 7 8 6 9 10 8 5 6 7 5 4 5 4 5 8 8 9 9 8 7 6 9 9 6 5 5 3 3 2 3 4 2 0 3 5 7 4 1 3 7 11 5 16 25 26 26 28 28 27 30 29 26 27
16 15 13 10 8 8 7 7 8 9 10 11 12 11 11 10 8 11 13 14 24 26 21 21 20 19 17 13 10 10 7 3 3 6 5 8 8 6 9 8 3 3 5 6 4 2 3 4 8 12 10 10 9 6 6 8 10 8 4 5 4 3 4 4 2 3 1 1 3 7 6 4 3 5 7 11 7 11 23 30 31 31 29 29 32 32 27 26
17 15 12 9 7 8 6 7 9 9 9 11 12 14 14 12 10 14 13 10 18 24 17 14 16 17 17 13 9 10 9 4 5 8 8 8 9 9 8 6 4 5 4 4 4 3 3 7 13 14 10 9 9 6 6 8 7 6 5 5 4 5 5 2 3 3 1 1 2 7 5 2 3 5 5 10 10 6 18 25 33 35 32 32 34 32 30 27
17 14 11 9 7 7 5 6 7 8 11 12 12 16 17 10 6 10 12 7 9 14 11 8 11 14 14 10 7 10 11 8 7 9 12 12 11 9 8 8 6 4 4 6 7 6 7 12 13 12 9 9 10 7 7 6 4 6 7 5 6 9 5 3 7 6 4 2 2 7 5 1 5 6 3 7 10 3 12 17 27 30 32 36 35 32 30 29
17 14 11 8 6 6 5 5 6 8 12 11 11 17 17 11 11 11 7 4 5 7 7 5 8 10 10 7 6 7 8 10 10 9 13 14 12 8 6 9 7 4 7 7 6 6 11 14 10 7 9 10 9 7 10 9 5 5 7 7 10 12 6 9 13 8 4 2 3 6 4 3 7 7 4 4 6 1 5 12 22 23 26 35 35 32 31 31
17 14 10 8 6 5 4 4 6 8 10 9 10 14 14 12 16 14 4 2 3 4 4 2 5 3 4 10 8 3 2 6 7 7 13 12 11 8 3 4 4 5 7 6 4 4 7 11 8 9 11 10 7 6 10 11 7 3 5 8 11 10 10 13 14 7 3 4 4 4 4 3 4 7 6 5 5 2 1 8 18 19 22 33 34 32 33 33
17 13 10 8 6 5 4 4 5 7 8 8 10 12 11 10 14 13 3 2 3 3 2 2 3 2 5 11 9 4 2 4 2 5 14 11 7 10 6 3 2 4 3 1 3 4 6 7 8 10 11 8 7 5 9 11 7 3 6 13 12 11 12 12 9 4 2 4 3 1 2 3 3 7 5 5 5 3 3 5 12 14 19 30 32 31 36 35
16 13 9 7 5 4 4 3 3 5 7 10 12 11 9 9 11 7 2 2 2 2 1 2 1 3 8 7 6 4 3 4 1 5 16 12 5 8 7 5 4 4 4 1 4 6 5 6 9 10 9 7 6 5 9 10 4 2 10 15 11 11 10 7 5 3 3 5 4 3 2 2 3 3 3 5 6 6 6 6 9 11 16 27 29 30 37 37
16 13 9 7 5 4 4 3 3 4 6 11 13 11 11 11 8 3 4 2 1 2 2 3 2 5 9 6 5 6 4 1 3 6 15 14 10 8 5 6 5 5 6 5 6 7 6 9 9 8 7 7 5 5 11 11 7 8 15 15 11 9 8 5 4 3 3 2 3 6 6 3 3 2 4 6 7 7 6 6 8 12 16 22 26 30 37 37
16 12 8 6 5 4 5 4 4 6 9 13 14 14 15 10 4 4 3 1 2 3 3 4 2 7 10 4 2 6 3 3 4 4 9 11 11 9 5 7 6 4 6 5 5 8 12 16 10 6 8 8 7 9 12 16 16 16 16 13 10 7 5 4 2 3 3 0 2 6 8 4 2 4 6 6 5 7 7 5 6 10 15 20 23 29 35 36
15 12 7 5 5 6 6 3 4 7 10 14 15 15 13 6 3 4 1 1 2 3 1 2 2 6 9 4 1 3 2 1 2 1 3 4 3 3 2 4 4 2 4 4 5 7 8 11 8 6 10 12 12 11 15 18 18 15 10 8 8 4 3 4 3 3 2 2 1 5 8 6 4 4 5 7 6 6 7 7 7 10 15 19 20 26 34 36
13 11 6 5 6 7 5 2 3 6 9 12 15 13 6 4 3 1 2 3 2 2 2 2 3 5 6 4 2 1 0 1 2 1 2 2 1 2 2 3 2 2 4 3 3 5 5 5 6 4 10 20 15 8 11 11 8 10 8 7 6 2 2 2 1 1 1 2 0 3 7 6 5 3 5 8 9 10 12 12 13 14 19 22 21 23 32 36
11 9 5 5 6 7 4 2 3 6 9 12 14 9 4 5 2 3 3 3 1 3 3 1 4 5 5 4 2 2 2 2 3 1 1 3 2 3 5 5 5 3 2 3 3 4 4 5 5 3 8 19 17 10 7 4 5 10 9 5 4 3 2 1 2 1 1 1 2 1 6 5 4 2 6 9 12 17 22 22 20 19 20 23 21 22 30 35
10 7 4 5 7 6 3 1 2 6 10 13 11 6 5 3 3 3 3 4 3 3 3 3 1 3 5 3 5 4 2 3 4 1 3 2 1 2 4 4 5 5 3 2 3 2 2 4 4 4 6 13 14 11 11 9 8 8 5 4 4 4 4 3 3 2 2 1 2 1 3 4 2 2 4 8 13 19 22 22 21 20 19 19 16 18 27 34
9 6 4 5 7 6 4 2 2 5 8 11 7 4 3 1 3 2 3 4 3 4 5 6 4 4 3 1 3 5 4 2 4 2 4 2 0 3 3 3 4 4 2 1 3 2 1 4 7 4 7 14 12 9 12 12 5 4 3 3 2 4 4 4 2 3 4 2 1 1 2 3 3 3 3 5 10 15 17 16 16 18 23 25 19 15 22 32
8 6 4 5 8 7 6 3 1 3 6 7 6 2 1 3 3 2 3 4 3 4 5 7 5 4 2 3 2 2 3 2 2 3 2 2 3 4 3 3 2 4 4 2 3 1 1 4 6 4 1 9 14 12 12 12 6 1 2 2 3 3 5 6 2 1 4 2 1 2 2 2 1 2 4 6 7 11 13 15 16 19 24 29 28 19 18 29
7 7 4 6 9 8 7 5 2 2 3 4 4 1 3 4 4 3 5 7 6 3 4 4 3 2 2 1 2 1 2 1 3 2 2 3 3 4 2 4 4 4 5 2 2 1 2 4 7 3 2 3 14 15 9 11 11 5 2 5 2 1 3 5 3 1 2 1 1 3 3 2 1 1 3 7 9 10 12 13 15 17 20 25 29 25 18 23
7 6 4 8 10 9 9 7 5 3 1 3 1 3 3 3 6 8 10 9 4 2 4 2 2 1 2 1 1 1 2 2 2 1 1 2 3 3 2 3 5 2 3 1 1 1 2 2 7 4 4 3 6 9 1 6 8 8 6 7 4 2 1 3 3 2 2 0 1 2 3 3 4 3 4 9 11 12 13 13 12 13 17 23 30 28 20 19
7 6 3 9 10 7 7 7 9 5 1 2 1 3 2 4 11 15 12 6 3 4 2 1 2 1 0 1 0 2 1 3 4 3 1 0 2 3 2 2 5 8 10 6 1 3 1 1 5 5 3 5 4 5 1 5 3 5 5 5 3 2 3 4 2 3 4 2 1 1 0 3 4 5 7 10 11 12 13 12 10 13 19 26 31 30 24 20
7 6 3 10 9 6 7 8 9 5 1 1 3 4 4 6 13 12 13 9 3 3 1 2 2 2 1 1 1 1 0 3 4 4 2 1 2 4 4 2 4 8 8 10 5 4 3 1 3 7 2 6 4 4 7 5 5 4 3 2 3 0 2 2 1 2 4 3 2 1 0 4 4 3 7 11 10 11 13 12 12 19 24 28 33 33 29 24
5 5 2 7 5 9 12 11 8 4 1 3 3 4 6 8 10 8 18 14 3 2 2 0 1 3 2 2 2 1 1 2 3 3 2 1 2 2 4 3 2 4 5 6 4 3 2 2 2 5 4 1 3 5 7 8 7 6 4 4 5 2 3 3 0 2 2 4 4 3 2 5 3 3 6 8 9 10 15 14 13 20 26 27 30 31 30 25
2 2 2 3 3 12 17 10 4 4 2 4 6 8 11 12 8 3 12 12 6 4 3 1 1 3 2 0 1 2 2 1 1 3 3 3 4 5 6 7 3 3 4 2 3 4 2 1 2 2 3 4 8 8 4 8 6 5 5 5 5 4 4 5 3 3 2 3 2 3 1 4 4 3 5 6 9 14 20 20 16 18 22 24 25 26 27 24
3 5 2 4 5 12 13 3 4 2 2 9 13 12 13 11 3 3 6 7 6 5 4 3 2 2 1 1 1 2 2 1 2 2 3 5 5 8 7 9 7 2 4 1 3 5 3 2 3 4 5 5 8 7 4 3 1 2 2 2 4 4 4 5 4 3 4 3 2 3 1 3 4 2 6 10 12 15 20 23 21 20 21 25 26 25 26 23
8 8 4 4 5 9 8 2 2 3 4 9 9 9 10 6 0 2 4 3 3 3 3 2 2 1 1 1 1 1 2 2 2 1 1 3 2 3 2 7 8 3 2 1 1 3 3 1 3 3 4 6 7 8 7 5 4 1 4 5 3 6 5 3 1 3 3 4 5 4 1 4 4 1 4 9 10 11 15 21 23 22 22 25 26 28 30 24
8 6 5 5 5 7 8 6 5 4 4 6 7 7 6 4 1 2 3 2 2 0 1 2 3 3 2 2 3 3 4 3 1 2 3 1 2 4 6 9 7 3 2 1 3 5 2 1 3 4 2 2 2 3 3 4 4 3 4 5 4 5 6 4 2 4 2 3 4 4 3 3 2 2 4 6 7 7 10 16 20 21 24 26 26 28 31 24
5 1 5 10 10 8 6 6 5 2 3 5 6 5 2 2 3 2 4 1 1 2 1 1 3 4 3 4 5 5 5 4 3 3 4 4 3 4 11 15 11 8 9 7 7 6 1 1 2 5 5 4 4 6 6 4 2 5 6 9 9 5 2 6 4 4 4 4 3 3 3 5 2 2 4 5 6 6 8 13 16 17 20 25 26 28 31 24
3 1 3 6 7 8 9 11 10 7 8 8 4 3 3 3 2 1 2 0 3 6 4 1 2 2 1 2 3 3 5 5 6 4 3 4 3 4 13 17 12 14 15 10 8 6 2 4 3 1 2 1 4 4 4 3 4 5 7 10 11 9 7 8 4 4 5 6 2 4 4 6 2 2 4 3 4 5 5 9 12 17 21 24 25 27 31 27
4 3 4 4 3 2 5 9 11 11 13 11 5 1 3 5 3 0 1 0 5 7 4 2 4 2 3 4 3 1 5 5 5 5 2 4 4 4 10 10 8 15 14 7 6 5 4 3 6 4 7 9 9 10 10 7 7 8 10 13 14 13 11 9 4 3 6 6 3 6 12 9 4 5 5 4 6 9 11 12 10 12 15 20 26 28 30 29
5 3 5 5 3 4 6 12 15 12 9 7 3 1 0 3 5 2 1 2 3 4 4 1 4 4 5 5 4 3 2 2 2 4 2 3 4 2 4 5 6 12 11 5 4 4 4 2 7 6 7 9 11 12 11 9 10 12 12 12 15 16 14 12 10 11 13 11 8 12 16 11 7 6 7 9 13 16 16 15 14 11 9 7 16 23 27 29
5 3 7 9 7 8 10 11 11 9 6 4 2 2 1 1 3 3 3 3 2 2 4 2 3 4 5 7 6 3 1 5 3 3 1 2 4 1 1 1 4 6 7 4 3 4 3 2 5 6 6 4 6 7 10 13 14 15 13 12 14 18 16 14 12 10 11 11 10 13 14 9 5 5 9 13 17 17 16 14 14 11 8 6 5 6 12 15
3 1 5 7 5 6 8 9 7 5 4 3 2 2 1 1 1 1 3 4 4 4 3 3 3 4 6 8 8 4 3 0 1 4 4 3 4 3 2 2 2 3 5 3 2 3 3 2 3 6 5 3 5 4 5 12 14 15 15 15 13 15 13 11 10 8 6 7 10 13 10 3 4 5 10 14 17 17 14 12 13 10 6 7 6 5 4 4
2 2 1 1 3 5 5 6 7 3 2 5 5 4 4 4 0 4 3 4 4 7 4 4 5 5 5 7 6 5 7 9 8 8 10 10 7 7 9 10 5 1 1 0 2 2 2 2 3 5 2 3 6 4 0 6 10 9 7 10 9 10 12 11 12 12 10 7 7 8 5 2 5 5 7 11 13 14 11 9 10 9 6 5 7 7 6 4
Wind_Direction
21 21 20 19 17 16 16 19 19 18 14 11 11 10 10 10 9 10 5 356 345 339 336 329 324 321 318 316 314 311 306 296 288 284 286 284 207 206 188 188 181 180 192 179 172 174 177 182 183 184 190 208 230 234 222 199 176 153 92 39 241 206 209 214 179 143 149 113 143 160 132 96 304 234 215 152 141 142 143 144 140 133 137 146 150 153 154 154
15 16 16 16 14 12 13 16 18 20 19 17 15 14 13 11 11 13 7 357 345 342 338 333 329 322 320 319 317 315 312 303 295 290 287 254 211 210 191 186 182 183 189 185 179 175 177 173 172 180 191 214 231 217 200 174 165 142 84 39 250 185 187 189 130 128 169 118 147 166 150 156 247 267 269 189 147 138 138 136 130 128 134 142 149 154 155 155
9 10 11 12 11 10 9 11 16 20 23 22 18 17 16 14 11 7 2 356 345 340 338 338 333 324 322 318 319 321 322 319 310 324 32 35 212 207 194 189 181 181 185 187 183 174 174 165 167 184 196 220 234 196 182 162 160 93 77 16 274 191 155 176 147 156 196 155 126 151 153 229 229 221 293 231 148 140 146 141 135 136 142 144 149 156 156 156
3 5 7 7 8 7 5 8 13 17 21 21 18 15 14 14 11 7 3 355 347 343 341 341 335 329 320 317 321 324 334 340 7 109 66 49 82 193 196 192 182 179 180 182 183 177 175 171 182 210 212 232 232 189 175 170 168 103 104 211 267 174 119 183 162 169 191 164 141 161 178 206 193 196 261 200 148 146 155 149 146 145 149 148 147 154 157 157
358 360 2 3 5 5 2 3 10 14 14 15 16 13 11 13 13 11 6 360 355 349 344 343 340 333 322 319 321 324 344 10 123 115 70 55 63 108 182 190 182 178 178 179 181 180 183 187 207 238 238 240 214 182 178 174 161 107 150 212 244 268 259 182 171 176 177 159 155 166 180 168 165 200 239 196 152 157 157 152 150 148 152 151 148 151 155 156
353 354 356 359 2 4 360 358 4 8 8 11 15 15 13 12 13 14 12 10 6 360 357 351 343 336 328 322 320 320 327 192 150 107 103 67 35 50 143 181 180 175 178 182 180 182 191 197 218 236 239 232 181 169 172 164 157 127 174 203 219 238 233 154 172 176 157 156 161 166 177 162 162 209 239 205 152 155 153 152 151 149 152 153 152 152 154 155
350 350 352 355 358 1 358 355 359 2 5 9 13 17 16 12 12 12 11 13 12 10 5 357 349 342 334 322 319 311 292 274 168 85 91 358 350 12 95 178 185 178 178 184 182 184 193 197 217 229 234 228 179 169 159 161 161 133 120 196 206 209 155 149 160 158 156 169 171 173 176 168 171 180 285 171 146 149 150 150 150 150 151 154 156 156 157 158
347 347 348 350 354 358 356 353 353 357 1 5 11 14 14 10 7 4 4 4 5 6 2 358 351 342 339 326 318 312 301 304 99 68 41 15 326 320 319 207 194 186 182 185 183 181 192 203 214 219 228 228 193 170 156 161 165 132 155 201 182 104 136 145 149 151 161 172 176 175 170 191 185 140 338 160 146 146 148 148 148 150 152 155 158 160 163 163
346 344 344 346 350 354 354 352 348 349 352 359 4 4 5 3 359 358 356 354 352 354 353 350 346 341 340 328 319 320 313 105 98 45 32 25 352 331 285 247 205 195 187 186 184 183 195 208 207 208 230 228 197 165 157 156 193 179 167 166 147 115 140 140 143 150 155 162 168 162 170 206 189 139 132 153 145 145 146 146 149 150 153 157 160 164 166 166
342 340 340 342 345 349 352 351 346 343 342 349 353 351 352 353 352 352 349 348 345 343 340 338 341 339 333 327 326 328 132 102 61 25 17 349 349 343 290 240 214 202 192 187 185 186 193 196 196 217 261 245 192 161 164 167 179 161 137 120 117 107 108 120 133 138 147 156 142 162 222 209 183 153 138 145 143 144 144 146 149 152 155 159 163 168 168 169
343 337 336 337 341 345 348 350 345 337 333 335 336 336 340 344 347 346 344 343 342 341 336 328 331 332 329 322 305 243 142 88 22 347 330 322 337 334 301 232 210 202 195 190 186 187 191 189 194 256 293 296 146 151 155 138 143 137 120 101 97 97 82 79 110 122 136 163 156 274 243 195 177 167 148 147 146 145 144 147 151 154 157 161 167 171 172 172
349 338 333 334 336 340 345 347 344 335 329 321 321 327 331 337 340 340 341 339 338 339 335 328 327 327 325 310 285 241 140 151 295 317 296 300 323 322 303 223 207 202 197 192 188 189 194 196 221 252 270 338 109 146 112 113 122 108 94 97 97 96 89 46 73 115 125 158 275 300 153 141 175 165 150 149 148 147 146 149 153 157 159 164 170 174 175 174
351 343 334 330 331 337 341 344 343 335 324 313 314 321 326 334 336 335 335 334 332 331 330 327 324 323 318 306 278 192 165 196 240 294 243 267 302 310 310 217 197 198 201 198 191 190 202 224 254 257 267 299 123 137 118 116 107 79 48 16 92 98 87 349 23 84 106 81 318 311 149 152 225 154 154 152 150 148 147 150 156 160 163 168 173 177 177 175
350 347 337 329 327 332 338 340 339 332 323 314 314 321 329 333 331 329 328 325 324 320 321 322 318 321 312 301 201 171 227 212 236 246 226 262 278 285 299 232 188 185 199 202 195 198 216 237 264 272 275 247 134 121 112 89 65 82 54 355 331 126 133 331 348 9 103 29 333 343 138 147 128 142 151 153 152 150 149 154 160 163 167 172 176 180 179 176
348 347 340 331 324 328 336 337 335 330 325 319 320 327 331 331 326 324 322 316 315 313 315 314 309 317 310 299 197 203 238 233 256 253 229 248 255 255 256 219 190 178 192 204 202 209 225 248 274 276 253 143 128 113 96 51 38 69 85 22 305 80 130 299 319 345 115 48 357 25 132 132 117 139 147 157 158 153 153 159 163 166 168 173 178 180 177 173
346 345 343 333 322 325 332 334 333 329 327 326 326 330 329 327 326 322 316 310 308 307 311 306 300 311 307 303 334 316 255 248 285 278 217 217 225 238 232 196 187 183 192 206 210 229 251 268 278 262 201 138 129 118 81 68 50 10 69 141 316 27 156 209 302 316 351 62 18 31 138 138 119 157 159 172 171 157 156 162 163 165 169 174 177 175 170 165
347 344 343 337 323 321 330 335 331 326 328 326 324 328 328 328 331 326 312 304 303 305 311 297 291 300 295 321 346 338 327 304 331 338 210 200 206 224 219 191 187 199 209 222 238 259 267 266 259 241 202 152 132 122 100 77 177 81 47 140 116 196 186 150 228 277 324 17 21 33 105 139 145 171 172 186 179 161 157 160 161 164 168 172 172 169 167 162
347 344 344 339 324 320 330 331 324 320 322 319 323 331 332 334 338 330 309 309 310 312 319 294 287 311 298 328 332 328 343 101 132 196 220 199 203 226 223 198 182 204 218 239 251 250 258 252 206 190 186 177 141 128 149 188 178 169 178 171 148 196 211 179 183 201 164 113 137 115 104 110 126 177 184 199 182 163 159 158 160 165 167 167 167 166 166 164
347 345 343 339 327 320 324 321 315 310 314 319 328 334 338 342 342 339 331 323 310 310 323 283 263 279 267 295 310 315 71 127 121 171 212 204 199 220 221 200 193 203 207 230 253 233 233 232 183 179 220 218 177 162 190 199 177 170 171 161 156 170 196 189 164 175 164 125 154 181 116 106 159 185 192 222 196 166 159 159 160 165 166 165 166 165 164 164
347 345 343 340 328 316 312 312 306 308 321 331 340 347 350 348 348 352 336 319 307 306 305 292 282 274 273 289 304 304 285 118 217 201 208 213 202 208 208 194 195 201 193 192 233 228 209 165 191 206 209 217 205 196 199 193 163 153 157 160 160 155 149 152 136 176 183 137 177 180 92 109 202 202 234 297 224 168 158 160 162 165 167 166 167 169 168 167
347 345 344 339 324 311 304 305 306 313 323 326 336 341 329 328 337 338 333 321 316 314 302 300 295 283 282 287 297 296 300 340 211 196 205 218 209 205 200 185 181 197 210 210 213 219 192 177 215 214 211 215 218 213 195 172 148 146 155 153 148 143 124 79 116 176 221 119 171 137 111 131 221 267 312 329 264 174 162 163 164 166 168 166 169 174 176 173
346 345 344 337 320 307 300 302 310 314 320 323 329 330 324 336 335 322 325 313 312 314 302 298 293 282 280 278 287 287 277 302 252 215 194 205 204 200 192 172 158 217 222 214 201 209 202 217 230 219 212 218 228 224 183 164 150 147 148 138 140 142 115 67 89 175 272 342 158 131 129 150 183 245 300 329 298 176 164 167 166 167 167 165 170 178 181 177
345 346 344 334 315 303 298 305 311 313 322 327 332 340 344 344 326 310 310 288 297 310 303 284 277 271 266 264 269 258 241 240 249 224 200 199 201 203 196 169 188 222 214 196 177 174 213 230 230 221 209 213 229 228 187 171 154 150 150 140 152 167 156 137 168 172 76 30 135 124 113 108 179 251 305 314 296 163 154 169 169 169 168 168 172 178 183 179
344 347 344 331 309 296 297 306 314 321 327 334 347 1 5 359 335 313 305 281 282 304 306 274 267 264 254 253 250 230 222 221 237 222 200 200 197 195 206 196 191 219 221 207 187 188 228 235 225 219 213 209 220 216 186 179 167 170 170 151 156 179 189 128 140 151 106 57 80 112 101 110 193 235 278 298 294 147 141 164 172 173 171 170 174 178 184 180
344 347 343 329 303 290 296 306 322 329 330 343 0 6 12 9 357 339 307 295 283 289 311 279 252 260 244 220 222 221 220 232 247 231 202 201 196 185 214 208 186 216 227 216 202 207 242 243 224 221 227 215 215 208 190 185 167 185 197 177 164 169 152 113 135 151 123 162 212 144 143 189 198 222 232 279 294 160 138 161 173 180 172 170 175 178 181 178
343 346 344 327 297 285 294 300 322 334 336 349 352 351 0 2 352 341 320 15 320 276 318 260 209 272 211 185 199 186 186 246 260 237 204 196 202 200 236 235 199 224 220 207 210 210 242 235 207 214 231 224 217 205 194 183 154 192 203 157 148 140 127 133 147 158 138 169 201 169 157 153 197 226 218 229 259 240 200 171 174 181 175 172 176 178 177 175
341 344 344 324 298 277 281 296 319 335 341 342 334 336 348 354 346 338 324 45 334 274 298 205 206 357 133 173 196 151 80 289 319 216 196 186 206 207 217 271 264 248 230 172 232 231 230 219 194 210 226 223 217 215 203 183 155 203 160 131 132 129 137 148 146 144 125 122 127 149 123 111 200 230 202 205 252 249 236 197 178 181 178 177 179 177 175 175
338 340 340 322 301 262 269 306 326 342 345 336 332 330 333 339 341 344 87 75 344 288 274 192 185 95 130 157 197 192 287 292 45 197 196 192 209 193 198 235 228 259 275 206 248 257 230 201 193 201 212 215 218 207 180 158 117 142 128 118 123 125 131 136 111 97 107 115 144 188 155 129 204 228 145 175 236 238 218 209 191 186 181 181 183 178 175 177
334 335 338 319 289 244 251 285 317 351 346 334 334 329 327 336 345 25 89 66 311 275 231 166 135 149 157 149 176 213 272 235 167 198 194 203 224 203 205 242 235 283 273 216 229 265 261 239 214 178 192 219 210 166 147 128 97 103 103 95 91 93 93 89 87 85 85 119 182 191 180 170 201 200 162 185 223 227 213 212 202 194 186 183 183 179 176 178
330 329 334 309 272 242 241 252 293 331 339 334 331 325 328 342 23 64 52 16 261 261 195 165 173 170 167 142 171 225 237 175 202 215 194 209 225 217 238 259 252 282 281 252 244 255 263 264 251 183 199 200 145 125 117 114 118 110 96 89 85 72 63 62 44 65 80 242 221 193 194 194 208 201 191 190 199 204 198 202 207 202 195 187 183 180 177 178
325 326 329 299 262 237 237 257 305 322 335 334 329 328 334 356 73 80 54 274 279 283 227 171 206 169 162 153 174 235 246 215 269 266 214 225 230 220 264 286 270 306 323 309 284 274 271 270 262 215 190 153 118 109 107 114 122 112 102 114 101 59 25 40 2 33 103 220 222 191 198 202 219 218 201 186 173 182 196 199 196 200 203 194 183 181 180 180
320 325 326 285 250 225 229 271 322 326 334 333 332 336 355 37 33 88 252 311 344 267 254 203 207 186 171 163 109 36 339 323 316 284 202 185 138 205 199 191 186 7 331 287 295 309 288 255 251 229 145 127 114 104 110 117 122 113 121 132 106 79 29 30 308 337 151 212 341 189 191 203 237 229 190 187 180 188 201 207 200 196 201 198 190 185 183 182
317 324 319 264 235 220 224 247 310 329 337 338 341 349 57 70 349 242 255 302 264 231 256 242 204 169 128 116 82 28 29 349 312 269 171 156 161 241 242 214 170 145 252 268 335 327 299 298 277 250 129 126 124 123 133 150 149 138 144 149 123 125 117 121 228 228 214 215 6 140 173 191 268 248 190 191 190 193 198 204 207 204 201 197 194 192 185 184
317 322 302 248 219 212 197 156 318 332 342 345 353 18 66 59 271 258 278 266 259 291 316 337 281 132 94 121 177 151 89 317 288 318 36 70 144 274 280 260 211 190 206 305 319 244 247 304 267 219 161 141 134 144 159 158 159 163 152 133 140 158 153 166 193 187 176 163 33 47 167 178 222 231 198 191 191 195 197 200 206 211 213 207 200 198 190 185
320 314 283 236 203 191 168 150 340 345 349 354 12 59 77 256 251 269 277 260 291 321 327 348 13 94 68 294 198 138 120 249 279 359 28 56 14 293 286 277 240 188 119 13 274 238 204 254 248 233 163 146 141 157 152 137 153 200 131 113 186 193 146 127 160 159 138 127 109 182 222 206 189 197 189 179 187 193 193 189 188 196 207 212 211 208 195 188
322 312 287 224 193 178 169 173 15 352 344 10 39 58 182 227 229 208 257 274 311 322 341 356 13 65 40 312 327 55 124 135 40 36 356 1 339 300 268 277 258 163 156 189 239 258 18 273 273 315 5 145 147 156 150 142 154 196 146 197 244 194 127 111 98 79 106 103 155 193 245 269 232 218 172 161 178 186 183 181 178 177 188 201 207 210 201 191
324 318 280 196 178 172 179 192 197 291 318 52 77 243 237 237 238 223 266 291 302 321 32 29 351 42 56 313 332 39 148 86 59 71 337 355 324 287 284 290 267 188 178 193 281 217 147 293 285 267 290 192 150 147 160 168 151 114 203 223 222 41 79 98 108 76 98 111 182 208 238 223 203 255 163 159 174 185 183 179 177 175 179 190 198 203 201 192
335 325 246 177 161 169 179 192 212 221 239 68 92 250 225 234 261 267 274 286 314 25 68 58 318 322 93 78 305 258 138 99 78 100 5 1 291 287 341 291 273 323 26 47 274 248 118 313 292 244 192 199 128 114 162 226 164 141 186 198 162 131 98 102 123 149 152 160 211 222 244 217 203 210 184 179 183 184 183 179 173 174 182 189 196 200 199 195
339 328 244 162 153 175 181 199 219 210 109 43 312 263 227 260 276 282 290 304 33 62 58 3 351 326 188 105 324 305 83 120 128 131 127 171 275 307 340 288 290 333 5 40 54 297 24 168 284 303 177 155 106 97 203 264 218 147 153 180 171 137 153 162 157 146 141 150 215 213 278 244 231 203 187 191 190 179 176 179 177 179 186 191 197 204 204 199
339 331 220 163 168 218 222 216 213 183 116 225 227 260 277 285 285 311 358 13 47 80 39 304 7 23 324 338 13 319 3 107 128 133 121 211 254 299 302 283 299 315 359 44 39 320 344 126 279 317 341 142 148 182 180 193 209 169 118 166 207 137 123 151 162 143 126 139 178 133 210 258 252 196 184 187 182 175 175 176 180 187 193 195 198 205 206 202
359 338 230 174 197 220 199 196 204 181 193 234 222 256 271 275 279 354 26 23 28 87 63 173 61 44 20 349 352 312 351 56 111 120 83 301 269 296 274 257 301 325 10 42 16 323 336 359 320 324 342 116 242 241 178 168 187 169 145 181 192 164 122 113 255 258 117 129 168 155 193 268 264 180 186 186 171 168 177 182 186 191 196 199 198 201 204 202
64 307 230 145 175 189 173 171 220 195 181 251 252 255 263 268 267 24 28 13 9 26 36 57 50 31 32 257 330 10 45 56 129 128 131 193 211 219 257 309 358 97 85 70 280 297 291 38 23 320 302 274 269 272 178 170 198 173 165 189 172 149 137 135 194 235 121 113 143 121 153 273 260 186 173 181 175 170 177 185 193 195 199 202 199 197 199 197
351 292 248 134 168 190 177 177 292 223 221 260 258 261 268 270 262 67 30 14 13 16 17 18 37 46 21 263 345 20 67 109 196 164 171 194 206 217 249 334 354 98 85 62 268 309 325 29 21 316 299 304 298 321 49 118 171 127 225 224 150 161 176 162 180 169 129 156 147 80 334 263 267 221 171 177 180 174 177 183 190 194 200 205 203 201 198 193
338 308 290 129 174 218 216 229 272 248 266 268 263 275 289 290 335 60 33 32 22 23 22 356 28 67 258 272 327 309 81 75 246 251 197 192 220 244 252 12 5 15 73 148 222 5 359 6 38 15 348 351 343 352 7 2 10 37 283 290 218 199 186 153 95 86 113 198 164 120 216 252 283 308 149 162 166 167 179 187 189 189 193 198 200 202 200 195
351 320 316 346 327 275 248 223 214 229 266 286 280 286 311 321 302 108 79 32 323 57 96 327 353 2 322 6 10 355 51 65 281 326 10 350 315 344 21 25 11 20 66 133 103 64 45 197 98 89 72 32 359 338 316 309 327 316 315 349 333 254 196 159 93 93 134 213 160 144 198 238 299 37 113 140 150 154 172 184 188 188 191 193 192 195 196 194
10 331 324 335 337 333 303 287 303 296 267 279 280 286 331 305 271 100 78 23 331 42 43 338 3 7 356 16 30 17 18 34 37 28 13 358 323 332 12 21 20 17 13 22 66 83 72 334 114 141 146 163 207 231 245 256 316 336 5 36 21 347 123 124 121 149 169 160 170 231 189 151 146 97 101 125 136 137 149 162 173 180 189 195 190 188 190 191
3 352 14 346 332 347 350 343 353 349 304 286 264 272 302 284 271 48 20 331 96 54 21 315 345 357 5 33 55 23 353 17 31 16 358 357 314 321 7 17 21 17 14 23 59 86 84 342 336 149 113 220 243 265 301 336 36 23 32 50 32 15 54 88 126 189 168 142 179 314 44 95 123 82 87 111 119 117 113 123 150 168 181 192 189 180 183 190
353 329 13 13 322 328 350 328 324 324 306 287 252 232 317 317 308 196 315 109 97 60 29 320 342 26 109 85 91 38 353 19 18 343 327 345 327 346 5 358 357 12 21 36 48 78 118 352 334 355 20 3 2 29 44 62 73 49 43 56 46 29 39 55 64 97 98 110 127 61 61 59 26 42 60 54 64 72 67 69 98 144 165 181 183 178 182 193
7 327 324 349 329 271 285 298 302 308 300 273 243 135 65 328 322 307 95 86 81 44 54 57 345 35 91 85 103 107 20 73 3 314 294 349 337 4 18 335 327 5 25 43 24 56 112 1 340 15 38 16 14 40 61 69 67 52 36 48 58 46 35 38 51 70 80 85 85 76 70 55 21 31 57 67 74 79 80 80 86 90 85 132 172 179 187 196
31 10 322 332 325 292 294 305 306 304 304 304 315 299 225 64 356 356 65 83 95 32 50 58 337 11 69 69 71 64 195 168 175 288 275 12 341 326 49 292 282 340 21 50 2 18 60 357 344 34 56 17 360 43 72 70 70 61 35 27 54 55 37 28 35 50 70 78 72 67 68 56 10 21 57 70 77 78 77 82 89 95 95 91 108 160 181 185
33 48 323 319 306 299 312 319 316 306 309 328 301 263 290 27 131 123 59 44 90 96 46 27 23 17 39 53 48 11 331 158 277 315 330 339 318 294 284 266 260 338 7 23 354 8 39 17 10 45 55 2 345 0 83 79 69 55 29 9 30 56 51 36 32 28 45 76 69 59 62 43 329 12 56 61 66 70 66 69 80 89 116 141 153 164 152 135
340 171 117 346 275 289 318 318 316 326 335 319 308 295 313 314 259 122 92 0 53 89 32 3 68 68 39 39 24 341 355 6 349 332 330 325 322 323 313 309 315 345 236 226 48 35 70 73 57 64 62 335 354 346 336 78 55 35 5 339 357 55 67 51 38 30 28 52 67 60 63 23 346 16 60 60 60 67 62 62 83 90 92 130 167 155 109 104